Back to catalog

FENGYUN 1C DEB

AliveSSO
NORAD 36694·DEBRIS·🇨🇳 China

Launched May 10, 1999 from Taiyuan Satellite Launch Center

Loading…

Next Passes (next 24 hours)

TLE

AgingSource: Space-Track

Epoch: Sep 6, 2026, 23:48 UTC

1 36694U 99025DZQ 26249.99197133  .00000740  00000-0  34348-3 0  9994
2 36694  99.0475 304.3608 0101836 277.0059  81.9544 14.21199386674582

Track FENGYUN 1C DEB in real time with AllMySat

Download on the App Store